RYR2FU EGBB-LIRF

Flight info

Callsign RYR2FU
Flight time 2h 7m
Altitude 35000
Route ADMEX Y321 EMKUK UL612 OGULO DCT OKASI DCT OKEKO DCT MOU DCT MADIV DCT MOKIP DCT TUFTA DCT KOGAS DCT MEDAM DCT NITAM DCT MOGBO DCT ELB/N0437F360 DCT ELKAP
Aircraft B738/M-SDE2E3FGHIRWXY/LB1

Departure

Time 2026-05-06 12:20
Airport Birmingham Airport (EGBB)

Arrival

Time 2026-05-06 14:28
Airport Rome–Fiumicino Leonardo da Vinci International Airport (LIRF)
Time Latitude Longitude Altitude Speed Heading
2026-05-06 11:51 52.45176 -1.73746 322 ft 0 kts 326°
2026-05-06 11:52 52.45173 -1.73742 323 ft 0 kts 326°
2026-05-06 11:52 52.45176 -1.73746 323 ft 0 kts 326°
2026-05-06 12:10 52.45174 -1.73743 322 ft 3 kts 326°
2026-05-06 12:11 52.45153 -1.73721 320 ft 2 kts 326°
2026-05-06 12:11 52.45136 -1.73696 320 ft 4 kts 301°
2026-05-06 12:11 52.45130 -1.73658 319 ft 4 kts 255°
2026-05-06 12:11 52.45139 -1.73627 320 ft 1 kts 236°
2026-05-06 12:12 52.45125 -1.73660 319 ft 3 kts 236°
2026-05-06 12:12 52.45123 -1.73665 320 ft 1 kts 236°
2026-05-06 12:14 52.45114 -1.73687 321 ft 4 kts 236°
2026-05-06 12:14 52.45086 -1.73736 322 ft 11 kts 213°
2026-05-06 12:15 52.44986 -1.73692 322 ft 21 kts 143°
2026-05-06 12:15 52.44896 -1.73650 322 ft 11 kts 195°
2026-05-06 12:15 52.44819 -1.73688 322 ft 15 kts 197°
2026-05-06 12:15 52.44718 -1.73731 323 ft 8 kts 174°
2026-05-06 12:16 52.44645 -1.73654 323 ft 17 kts 144°
2026-05-06 12:16 52.44525 -1.73517 323 ft 25 kts 146°
2026-05-06 12:16 52.44413 -1.73406 323 ft 13 kts 166°
2026-05-06 12:16 52.44366 -1.73444 322 ft 0 kts 232°
2026-05-06 12:17 52.44366 -1.73445 322 ft 0 kts 232°
2026-05-06 12:17 52.44349 -1.73482 323 ft 6 kts 234°
2026-05-06 12:17 52.44326 -1.73538 321 ft 6 kts 236°
2026-05-06 12:18 52.44308 -1.73594 321 ft 0 kts 258°
2026-05-06 12:18 52.44309 -1.73597 321 ft 1 kts 281°
2026-05-06 12:18 52.44330 -1.73628 322 ft 6 kts 324°
2026-05-06 12:18 52.44333 -1.73632 323 ft 0 kts 325°
2026-05-06 12:19 52.44334 -1.73633 323 ft 0 kts 325°
2026-05-06 12:19 52.44434 -1.73746 323 ft 50 kts 326°
2026-05-06 12:20 52.44918 -1.74281 327 ft 116 kts 326°
2026-05-06 12:20 52.45739 -1.75200 362 ft 164 kts 327°
2026-05-06 12:20 52.46696 -1.76275 1099 ft 164 kts 328°
2026-05-06 12:20 52.47589 -1.77325 2132 ft 158 kts 332°
2026-05-06 12:21 52.48652 -1.77895 2725 ft 169 kts
2026-05-06 12:21 52.49847 -1.77356 3128 ft 192 kts 36°
2026-05-06 12:21 52.50581 -1.75420 3342 ft 219 kts 79°
2026-05-06 12:21 52.50284 -1.72899 3671 ft 241 kts 118°
2026-05-06 12:22 52.49204 -1.70667 4065 ft 264 kts 130°
2026-05-06 12:22 52.47933 -1.68411 4813 ft 269 kts 130°
2026-05-06 12:22 52.46661 -1.66141 5580 ft 273 kts 130°
2026-05-06 12:22 52.45388 -1.63820 6029 ft 277 kts 129°
2026-05-06 12:23 52.44096 -1.61418 6783 ft 282 kts 129°
2026-05-06 12:23 52.42792 -1.58967 7568 ft 286 kts 129°
2026-05-06 12:23 52.41497 -1.56517 8314 ft 290 kts 129°
2026-05-06 12:23 52.40165 -1.53989 9056 ft 294 kts 129°
2026-05-06 12:24 52.38817 -1.51427 9821 ft 298 kts 130°
2026-05-06 12:24 52.37444 -1.48820 10400 ft 308 kts 132°
2026-05-06 12:24 52.35714 -1.46552 10537 ft 331 kts 153°
2026-05-06 12:24 52.33498 -1.45336 10800 ft 347 kts 170°
2026-05-06 12:25 52.31087 -1.44648 11351 ft 355 kts 172°
2026-05-06 12:25 52.28632 -1.44005 12097 ft 357 kts 172°
2026-05-06 12:25 52.26168 -1.43358 12839 ft 360 kts 172°
2026-05-06 12:25 52.23686 -1.42692 13556 ft 363 kts 172°
2026-05-06 12:26 52.21169 -1.42002 14207 ft 367 kts 172°
2026-05-06 12:26 52.18632 -1.41294 14850 ft 370 kts 172°
2026-05-06 12:26 52.16108 -1.40585 15496 ft 372 kts 172°
2026-05-06 12:26 52.13544 -1.39863 16133 ft 375 kts 172°
2026-05-06 12:27 52.10954 -1.39133 16753 ft 378 kts 172°
2026-05-06 12:27 52.08379 -1.38407 17364 ft 382 kts 172°
2026-05-06 12:27 52.05739 -1.37664 17994 ft 385 kts 172°
2026-05-06 12:27 52.03102 -1.36923 18558 ft 388 kts 172°
2026-05-06 12:28 52.00426 -1.36172 19106 ft 390 kts 172°
2026-05-06 12:28 51.97760 -1.35233 19649 ft 394 kts 165°
2026-05-06 12:28 51.95203 -1.33571 20173 ft 398 kts 156°
2026-05-06 12:28 51.92721 -1.31565 20708 ft 401 kts 155°
2026-05-06 12:29 51.90244 -1.29515 21208 ft 404 kts 155°
2026-05-06 12:29 51.87730 -1.27440 21696 ft 406 kts 155°
2026-05-06 12:29 51.85186 -1.25358 22229 ft 409 kts 155°
2026-05-06 12:29 51.82630 -1.23287 22711 ft 411 kts 155°
2026-05-06 12:30 51.80094 -1.21246 23186 ft 414 kts 155°
2026-05-06 12:30 51.77499 -1.19167 23643 ft 417 kts 155°
2026-05-06 12:30 51.74881 -1.17073 24027 ft 419 kts 155°
2026-05-06 12:30 51.72253 -1.14975 24423 ft 421 kts 155°
2026-05-06 12:31 51.69639 -1.12890 24812 ft 423 kts 155°
2026-05-06 12:31 51.66980 -1.10771 25177 ft 426 kts 155°
2026-05-06 12:31 51.64318 -1.08654 25541 ft 428 kts 155°
2026-05-06 12:31 51.61671 -1.06513 25903 ft 431 kts 153°
2026-05-06 12:32 51.59129 -1.03900 26242 ft 435 kts 146°
2026-05-06 12:32 51.56673 -1.01035 26611 ft 437 kts 145°
2026-05-06 12:32 51.54203 -0.98112 26959 ft 439 kts 145°
2026-05-06 12:32 51.51758 -0.95259 27284 ft 441 kts 146°
2026-05-06 12:33 51.49242 -0.92375 27611 ft 443 kts 146°
2026-05-06 12:33 51.46708 -0.89502 27942 ft 445 kts 147°
2026-05-06 12:33 51.44040 -0.86959 28247 ft 446 kts 156°
2026-05-06 12:33 51.41213 -0.85059 28568 ft 446 kts 160°
2026-05-06 12:34 51.38299 -0.83246 28883 ft 448 kts 160°
2026-05-06 12:34 51.35376 -0.81449 29160 ft 451 kts 160°
2026-05-06 12:34 51.32466 -0.79645 29428 ft 453 kts 160°
2026-05-06 12:34 51.29515 -0.77793 29709 ft 455 kts 160°
2026-05-06 12:35 51.26570 -0.75929 30093 ft 454 kts 159°
2026-05-06 12:35 51.23632 -0.74061 30480 ft 452 kts 159°
2026-05-06 12:35 51.20718 -0.72205 30846 ft 450 kts 159°
2026-05-06 12:35 51.17809 -0.70355 31142 ft 450 kts 159°
2026-05-06 12:36 51.14930 -0.68529 31414 ft 450 kts 159°
2026-05-06 12:36 51.12006 -0.66677 31723 ft 450 kts 159°
2026-05-06 12:36 51.09099 -0.64838 32042 ft 449 kts 159°
2026-05-06 12:36 51.06241 -0.63005 32312 ft 449 kts 157°
2026-05-06 12:37 51.03444 -0.60634 32563 ft 451 kts 148°
2026-05-06 12:37 51.00872 -0.57899 32871 ft 450 kts 146°
2026-05-06 12:37 50.98290 -0.55075 33164 ft 449 kts 146°
2026-05-06 12:37 50.95709 -0.52250 33397 ft 450 kts 146°
2026-05-06 12:38 50.93145 -0.49468 33643 ft 450 kts 146°
2026-05-06 12:38 50.90650 -0.46787 33934 ft 449 kts 147°
2026-05-06 12:38 50.88048 -0.44013 34195 ft 448 kts 147°
2026-05-06 12:38 50.85460 -0.41267 34395 ft 448 kts 147°
2026-05-06 12:39 50.83737 -0.39445 34507 ft 448 kts 147°
2026-05-06 12:39 50.81143 -0.36702 34675 ft 449 kts 147°
2026-05-06 12:39 50.77700 -0.33066 34963 ft 448 kts 147°
2026-05-06 12:39 50.75082 -0.30304 34949 ft 452 kts 147°
2026-05-06 12:40 50.69831 -0.24776 34970 ft 459 kts 147°
2026-05-06 12:40 50.65377 -0.20104 34976 ft 464 kts 147°
2026-05-06 12:41 50.59949 -0.14423 34976 ft 469 kts 147°
2026-05-06 12:41 50.54526 -0.08759 34968 ft 471 kts 147°
2026-05-06 12:42 50.49046 -0.03049 34972 ft 472 kts 147°
2026-05-06 12:42 50.43584 0.02623 34966 ft 472 kts 147°
2026-05-06 12:43 50.38093 0.08307 34971 ft 471 kts 147°
2026-05-06 12:43 50.32639 0.13935 34970 ft 470 kts 147°
2026-05-06 12:44 50.27179 0.19557 34967 ft 469 kts 147°
2026-05-06 12:44 50.21728 0.25156 34971 ft 468 kts 147°
2026-05-06 12:45 50.16293 0.30735 34971 ft 467 kts 147°
2026-05-06 12:46 50.08175 0.39068 34968 ft 466 kts 147°
2026-05-06 12:46 50.02781 0.44587 34970 ft 465 kts 147°
2026-05-06 12:47 49.97346 0.50132 34965 ft 465 kts 147°
2026-05-06 12:47 49.91955 0.55619 34967 ft 465 kts 147°
2026-05-06 12:48 49.86542 0.61112 34963 ft 465 kts 147°
2026-05-06 12:48 49.81425 0.67175 34964 ft 465 kts 141°
2026-05-06 12:49 49.76420 0.73567 34960 ft 465 kts 141°
2026-05-06 12:49 49.71415 0.79911 34957 ft 465 kts 141°
2026-05-06 12:50 49.66416 0.86181 34953 ft 465 kts 141°
2026-05-06 12:50 49.61377 0.92467 34947 ft 465 kts 141°
2026-05-06 12:51 49.56327 0.98751 34947 ft 465 kts 141°
2026-05-06 12:51 49.51310 1.04980 34941 ft 465 kts 141°
2026-05-06 12:52 49.46253 1.11242 34941 ft 465 kts 141°
2026-05-06 12:52 49.41227 1.17450 34939 ft 465 kts 141°
2026-05-06 12:53 49.36167 1.23676 34940 ft 465 kts 141°
2026-05-06 12:53 49.31108 1.29884 34937 ft 465 kts 141°
2026-05-06 12:54 49.26073 1.36050 34935 ft 465 kts 142°
2026-05-06 12:54 49.21011 1.42234 34933 ft 464 kts 142°
2026-05-06 12:55 49.15985 1.48358 34929 ft 464 kts 142°
2026-05-06 12:55 49.10923 1.54508 34920 ft 464 kts 142°
2026-05-06 12:56 49.05857 1.60647 34919 ft 464 kts 142°
2026-05-06 12:56 49.00810 1.66747 34917 ft 464 kts 142°
2026-05-06 12:57 48.95730 1.72870 34916 ft 464 kts 142°
2026-05-06 12:57 48.90679 1.78942 34916 ft 464 kts 142°
2026-05-06 12:58 48.85595 1.85036 34912 ft 464 kts 142°
2026-05-06 12:58 48.80548 1.91072 34914 ft 464 kts 142°
2026-05-06 12:59 48.75459 1.97141 34908 ft 463 kts 142°
2026-05-06 12:59 48.70425 2.03131 34916 ft 463 kts 142°
2026-05-06 13:00 48.65343 2.09161 34913 ft 463 kts 142°
2026-05-06 13:00 48.60295 2.15138 34911 ft 462 kts 142°
2026-05-06 13:01 48.55311 2.21315 34906 ft 462 kts 136°
2026-05-06 13:01 48.50817 2.28168 34908 ft 462 kts 135°
2026-05-06 13:02 48.46332 2.35133 34908 ft 461 kts 135°
2026-05-06 13:02 48.41820 2.42001 34913 ft 461 kts 135°
2026-05-06 13:03 48.37316 2.48787 34912 ft 460 kts 135°
2026-05-06 13:03 48.32778 2.55609 34915 ft 460 kts 135°
2026-05-06 13:04 48.28071 2.62131 34907 ft 460 kts 145°
2026-05-06 13:04 48.22480 2.66633 34930 ft 459 kts 157°
2026-05-06 13:05 48.16724 2.70843 34934 ft 460 kts 151°
2026-05-06 13:05 48.11145 2.75518 34914 ft 462 kts 152°
2026-05-06 13:06 48.05383 2.79817 34923 ft 462 kts 157°
2026-05-06 13:06 47.99438 2.83550 34912 ft 463 kts 158°
2026-05-06 13:07 47.93519 2.87222 34915 ft 464 kts 158°
2026-05-06 13:07 47.87571 2.90963 34916 ft 464 kts 158°
2026-05-06 13:08 47.81619 2.94725 34914 ft 464 kts 158°
2026-05-06 13:08 47.75678 2.98476 34930 ft 463 kts 158°
2026-05-06 13:09 47.69756 3.02202 34908 ft 463 kts 158°
2026-05-06 13:09 47.63820 3.05928 34913 ft 463 kts 158°
2026-05-06 13:10 47.57916 3.09625 34906 ft 462 kts 158°
2026-05-06 13:10 47.51975 3.13334 34903 ft 462 kts 158°
2026-05-06 13:11 47.46080 3.17000 34921 ft 461 kts 158°
2026-05-06 13:11 47.40135 3.20690 34894 ft 461 kts 158°
2026-05-06 13:12 47.34253 3.24333 34897 ft 461 kts 158°
2026-05-06 13:12 47.28326 3.27995 34891 ft 460 kts 158°
2026-05-06 13:13 47.22441 3.31623 34901 ft 460 kts 158°
2026-05-06 13:13 47.16525 3.35262 34903 ft 460 kts 158°
2026-05-06 13:14 47.10601 3.38896 34900 ft 460 kts 159°
2026-05-06 13:14 47.04721 3.42495 34889 ft 460 kts 159°
2026-05-06 13:15 46.98778 3.46123 34894 ft 460 kts 159°
2026-05-06 13:15 46.92870 3.49722 34897 ft 461 kts 159°
2026-05-06 13:16 46.86971 3.53307 34875 ft 461 kts 159°
2026-05-06 13:16 46.81039 3.56905 34875 ft 461 kts 159°
2026-05-06 13:17 46.75128 3.60529 34862 ft 461 kts 154°
2026-05-06 13:17 46.72514 3.63237 34881 ft 464 kts 136°
2026-05-06 13:17 46.70480 3.66919 34873 ft 468 kts 122°
2026-05-06 13:17 46.69158 3.71256 34869 ft 471 kts 107°
2026-05-06 13:18 46.68366 3.75908 34882 ft 473 kts 104°
2026-05-06 13:18 46.66925 3.85273 34871 ft 474 kts 105°
2026-05-06 13:19 46.65358 3.94544 34865 ft 474 kts 106°
2026-05-06 13:19 46.63731 4.03889 34875 ft 475 kts 106°
2026-05-06 13:20 46.62102 4.13224 34875 ft 476 kts 106°
2026-05-06 13:20 46.60477 4.22514 34873 ft 476 kts 107°
2026-05-06 13:21 46.58834 4.31868 34873 ft 477 kts 107°
2026-05-06 13:21 46.57182 4.41223 34875 ft 477 kts 107°
2026-05-06 13:22 46.55530 4.50529 34876 ft 478 kts 107°
2026-05-06 13:22 46.53867 4.59846 34888 ft 478 kts 107°
2026-05-06 13:23 46.52188 4.69209 34886 ft 479 kts 107°
2026-05-06 13:23 46.50500 4.78570 34879 ft 480 kts 107°
2026-05-06 13:24 46.48803 4.87933 34890 ft 480 kts 107°
2026-05-06 13:24 46.47096 4.97315 34894 ft 480 kts 108°
2026-05-06 13:25 46.45158 5.06573 34893 ft 477 kts 117°
2026-05-06 13:25 46.41732 5.14636 34900 ft 470 kts 134°
2026-05-06 13:26 46.38063 5.20458 34914 ft 469 kts 136°
2026-05-06 13:26 46.33659 5.27479 34898 ft 471 kts 135°
2026-05-06 13:27 46.29335 5.34617 34905 ft 470 kts 134°
2026-05-06 13:27 46.25039 5.41696 34916 ft 470 kts 135°
2026-05-06 13:28 46.20725 5.48745 34916 ft 469 kts 135°
2026-05-06 13:28 46.16385 5.55798 34915 ft 469 kts 135°
2026-05-06 13:29 46.12041 5.62833 34914 ft 468 kts 136°
2026-05-06 13:29 46.07715 5.69823 34924 ft 468 kts 136°
2026-05-06 13:30 46.03397 5.76782 34915 ft 467 kts 136°
2026-05-06 13:30 45.99057 5.83761 34935 ft 467 kts 136°
2026-05-06 13:31 45.94735 5.90692 34933 ft 467 kts 136°
2026-05-06 13:31 45.90407 5.97616 34941 ft 466 kts 137°
2026-05-06 13:32 45.86055 6.04561 34931 ft 466 kts 137°
2026-05-06 13:32 45.81726 6.11450 34935 ft 465 kts 137°
2026-05-06 13:33 45.77388 6.18339 34930 ft 464 kts 137°
2026-05-06 13:33 45.73079 6.25162 34942 ft 463 kts 137°
2026-05-06 13:34 45.68757 6.31990 34935 ft 462 kts 138°
2026-05-06 13:34 45.64418 6.38827 34940 ft 463 kts 138°
2026-05-06 13:35 45.60101 6.45612 34936 ft 463 kts 138°
2026-05-06 13:35 45.55763 6.52415 34935 ft 464 kts 138°
2026-05-06 13:36 45.51423 6.59203 34929 ft 464 kts 138°
2026-05-06 13:36 45.47058 6.66015 34931 ft 463 kts 139°
2026-05-06 13:37 45.42714 6.72776 34926 ft 463 kts 139°
2026-05-06 13:37 45.38379 6.79508 34915 ft 462 kts 139°
2026-05-06 13:38 45.34019 6.86261 34893 ft 461 kts 139°
2026-05-06 13:38 45.29694 6.92943 34884 ft 461 kts 139°
2026-05-06 13:39 45.25352 6.99636 34867 ft 459 kts 139°
2026-05-06 13:39 45.21029 7.06287 34892 ft 458 kts 140°
2026-05-06 13:40 45.16692 7.12932 34874 ft 460 kts 140°
2026-05-06 13:40 45.12353 7.19571 34868 ft 459 kts 140°
2026-05-06 13:41 45.08037 7.26163 34887 ft 458 kts 140°
2026-05-06 13:41 45.03683 7.32794 34873 ft 458 kts 140°
2026-05-06 13:42 44.99365 7.39355 34863 ft 456 kts 140°
2026-05-06 13:42 44.95029 7.45927 34815 ft 455 kts 141°
2026-05-06 13:43 44.90726 7.52432 34818 ft 455 kts 141°
2026-05-06 13:43 44.86385 7.58979 34816 ft 456 kts 141°
2026-05-06 13:44 44.82062 7.65484 34811 ft 456 kts 141°
2026-05-06 13:44 44.77716 7.72008 34797 ft 457 kts 141°
2026-05-06 13:45 44.73379 7.78504 34796 ft 457 kts 141°
2026-05-06 13:45 44.66817 7.88305 34796 ft 458 kts 142°
2026-05-06 13:46 44.62463 7.94787 34787 ft 458 kts 142°
2026-05-06 13:46 44.58068 8.01318 34795 ft 458 kts 142°
2026-05-06 13:47 44.53703 8.07786 34788 ft 459 kts 142°
2026-05-06 13:47 44.49305 8.14289 34793 ft 459 kts 142°
2026-05-06 13:48 44.44925 8.20751 34794 ft 459 kts 142°
2026-05-06 13:48 44.40520 8.27234 34803 ft 459 kts 142°
2026-05-06 13:49 44.36101 8.33722 34819 ft 459 kts 142°
2026-05-06 13:49 44.31708 8.40157 34831 ft 459 kts 142°
2026-05-06 13:50 44.27303 8.46594 34837 ft 459 kts 143°
2026-05-06 13:50 44.22873 8.53053 34846 ft 459 kts 143°
2026-05-06 13:51 44.18478 8.59447 34850 ft 459 kts 143°
2026-05-06 13:51 44.14049 8.65875 34854 ft 458 kts 142°
2026-05-06 13:52 44.09650 8.72244 34860 ft 459 kts 142°
2026-05-06 13:52 44.05210 8.78658 34862 ft 459 kts 142°
2026-05-06 13:53 44.00802 8.85011 34865 ft 459 kts 143°
2026-05-06 13:53 43.96357 8.91403 34868 ft 459 kts 142°
2026-05-06 13:54 43.91908 8.97787 34871 ft 459 kts 142°
2026-05-06 13:54 43.87476 9.04131 34870 ft 459 kts 142°
2026-05-06 13:55 43.83012 9.10506 34885 ft 460 kts 142°
2026-05-06 13:55 43.78575 9.16829 34890 ft 460 kts 142°
2026-05-06 13:56 43.74098 9.23193 34889 ft 461 kts 142°
2026-05-06 13:56 43.69648 9.29505 34894 ft 461 kts 142°
2026-05-06 13:57 43.65151 9.35869 34897 ft 462 kts 142°
2026-05-06 13:57 43.60668 9.42199 34899 ft 462 kts 142°
2026-05-06 13:58 43.56162 9.48547 34900 ft 463 kts 142°
2026-05-06 13:58 43.51665 9.54868 34903 ft 464 kts 142°
2026-05-06 13:59 43.47151 9.61200 34896 ft 460 kts 142°
2026-05-06 13:59 43.44949 9.64298 34882 ft 444 kts 142°
2026-05-06 13:59 43.42812 9.67307 34892 ft 429 kts 143°
2026-05-06 14:00 43.40755 9.70195 34886 ft 415 kts 143°
2026-05-06 14:00 43.38774 9.72965 34800 ft 408 kts 143°
2026-05-06 14:00 43.36784 9.75733 34534 ft 402 kts 143°
2026-05-06 14:00 43.34824 9.78456 34180 ft 398 kts 143°
2026-05-06 14:01 43.32877 9.81155 33832 ft 395 kts 144°
2026-05-06 14:01 43.30950 9.83827 33436 ft 392 kts 144°
2026-05-06 14:01 43.29062 9.86445 33084 ft 388 kts 144°
2026-05-06 14:01 43.27171 9.89067 32714 ft 385 kts 144°
2026-05-06 14:02 43.25294 9.91668 32392 ft 381 kts 144°
2026-05-06 14:02 43.23435 9.94243 32021 ft 379 kts 144°
2026-05-06 14:02 43.21584 9.96802 31677 ft 376 kts 144°
2026-05-06 14:02 43.19752 9.99335 31341 ft 373 kts 144°
2026-05-06 14:03 43.17930 10.01851 31004 ft 370 kts 144°
2026-05-06 14:03 43.16118 10.04351 30676 ft 368 kts 144°
2026-05-06 14:03 43.14321 10.06828 30338 ft 365 kts 144°
2026-05-06 14:03 43.12531 10.09293 30019 ft 363 kts 144°
2026-05-06 14:04 43.10777 10.11708 29639 ft 360 kts 144°
2026-05-06 14:04 43.09013 10.14134 29304 ft 356 kts 144°
2026-05-06 14:04 43.07272 10.16528 28958 ft 353 kts 145°
2026-05-06 14:04 43.05550 10.18893 28625 ft 349 kts 145°
2026-05-06 14:05 43.03833 10.21247 28291 ft 347 kts 145°
2026-05-06 14:05 43.02152 10.23549 27980 ft 347 kts 145°
2026-05-06 14:05 43.00419 10.25910 27648 ft 358 kts 145°
2026-05-06 14:05 42.98625 10.28348 27302 ft 367 kts 144°
2026-05-06 14:06 42.96814 10.30821 26929 ft 366 kts 144°
2026-05-06 14:06 42.95016 10.33285 26564 ft 363 kts 144°
2026-05-06 14:06 42.93260 10.35690 26223 ft 361 kts 144°
2026-05-06 14:06 42.91494 10.38105 25878 ft 358 kts 144°
2026-05-06 14:07 42.89733 10.40507 25537 ft 356 kts 144°
2026-05-06 14:07 42.87980 10.42895 25202 ft 353 kts 144°
2026-05-06 14:07 42.86241 10.45260 24867 ft 351 kts 144°
2026-05-06 14:07 42.84534 10.47580 24535 ft 350 kts 144°
2026-05-06 14:08 42.82811 10.49917 24204 ft 348 kts 144°
2026-05-06 14:08 42.81101 10.52238 23877 ft 346 kts 144°
2026-05-06 14:08 42.79396 10.54547 23543 ft 345 kts 144°
2026-05-06 14:08 42.77693 10.56855 23152 ft 344 kts 144°
2026-05-06 14:09 42.75996 10.59152 22781 ft 342 kts 144°
2026-05-06 14:09 42.74334 10.61400 22430 ft 340 kts 144°
2026-05-06 14:09 42.72665 10.63677 22098 ft 339 kts 141°
2026-05-06 14:09 42.71213 10.66246 21761 ft 346 kts 130°
2026-05-06 14:10 42.69959 10.69033 21455 ft 344 kts 129°
2026-05-06 14:10 42.68733 10.71821 21119 ft 342 kts 128°
2026-05-06 14:10 42.67517 10.74598 20786 ft 340 kts 128°
2026-05-06 14:10 42.66304 10.77355 20474 ft 338 kts 128°
2026-05-06 14:11 42.65110 10.80058 20153 ft 337 kts 128°
2026-05-06 14:11 42.63901 10.82780 19837 ft 335 kts 128°
2026-05-06 14:11 42.62696 10.85486 19533 ft 334 kts 127°
2026-05-06 14:11 42.61495 10.88174 19201 ft 332 kts 127°
2026-05-06 14:12 42.60293 10.90859 18885 ft 331 kts 127°
2026-05-06 14:12 42.59096 10.93530 18566 ft 330 kts 127°
2026-05-06 14:12 42.57899 10.96195 18243 ft 330 kts 127°
2026-05-06 14:12 42.56720 10.98819 17880 ft 329 kts 127°
2026-05-06 14:13 42.55534 11.01459 17536 ft 327 kts 127°
2026-05-06 14:13 42.54348 11.04094 17206 ft 326 kts 127°
2026-05-06 14:13 42.53569 11.05824 16987 ft 324 kts 127°
2026-05-06 14:13 42.52002 11.09300 16574 ft 322 kts 127°
2026-05-06 14:14 42.51228 11.11017 16373 ft 321 kts 127°
2026-05-06 14:14 42.50065 11.13592 16047 ft 319 kts 127°
2026-05-06 14:14 42.48907 11.16154 15735 ft 318 kts 127°
2026-05-06 14:14 42.47756 11.18699 15420 ft 316 kts 127°
2026-05-06 14:15 42.46608 11.21234 15109 ft 315 kts 127°
2026-05-06 14:15 42.45465 11.23756 14805 ft 314 kts 127°
2026-05-06 14:15 42.44337 11.26243 14495 ft 313 kts 127°
2026-05-06 14:15 42.43194 11.28759 14194 ft 313 kts 127°
2026-05-06 14:16 42.42048 11.31279 13860 ft 314 kts 127°
2026-05-06 14:16 42.40902 11.33801 13526 ft 314 kts 127°
2026-05-06 14:16 42.39757 11.36315 13187 ft 313 kts 127°
2026-05-06 14:16 42.38618 11.38817 12861 ft 311 kts 127°
2026-05-06 14:17 42.37484 11.41307 12545 ft 310 kts 127°
2026-05-06 14:17 42.36367 11.43755 12237 ft 309 kts 127°
2026-05-06 14:17 42.35240 11.46224 11923 ft 307 kts 126°
2026-05-06 14:17 42.34118 11.48680 11615 ft 306 kts 126°
2026-05-06 14:18 42.33002 11.51121 11307 ft 305 kts 126°
2026-05-06 14:18 42.31888 11.53554 10993 ft 304 kts 126°
2026-05-06 14:18 42.30777 11.55980 10689 ft 302 kts 126°
2026-05-06 14:18 42.29669 11.58397 10400 ft 302 kts 126°
2026-05-06 14:19 42.28563 11.60808 10128 ft 299 kts 126°
2026-05-06 14:19 42.27491 11.63145 9965 ft 293 kts 126°
2026-05-06 14:19 42.26414 11.65489 9636 ft 292 kts 126°
2026-05-06 14:19 42.25342 11.67820 9344 ft 291 kts 126°
2026-05-06 14:20 42.24273 11.70141 9044 ft 290 kts 126°
2026-05-06 14:20 42.23207 11.72455 8739 ft 289 kts 126°
2026-05-06 14:20 42.22161 11.74724 8447 ft 288 kts 126°
2026-05-06 14:20 42.21103 11.77017 8159 ft 287 kts 126°
2026-05-06 14:21 42.20050 11.79299 7862 ft 286 kts 126°
2026-05-06 14:21 42.18996 11.81580 7573 ft 285 kts 126°
2026-05-06 14:21 42.17945 11.83853 7282 ft 285 kts 126°
2026-05-06 14:21 42.16892 11.86127 6988 ft 284 kts 126°
2026-05-06 14:22 42.15859 11.88357 6703 ft 284 kts 126°
2026-05-06 14:22 42.14814 11.90613 6412 ft 284 kts 126°
2026-05-06 14:22 42.13763 11.92879 6096 ft 285 kts 126°
2026-05-06 14:22 42.12714 11.95139 5795 ft 284 kts 126°
2026-05-06 14:23 42.11668 11.97392 5475 ft 282 kts 126°
2026-05-06 14:23 42.10634 11.99620 5205 ft 278 kts 126°
2026-05-06 14:23 42.09608 12.01824 4933 ft 276 kts 126°
2026-05-06 14:23 42.08589 12.04014 4648 ft 275 kts 126°
2026-05-06 14:24 42.07666 12.06003 4533 ft 266 kts 126°
2026-05-06 14:24 42.06697 12.08083 4414 ft 257 kts 126°
2026-05-06 14:24 42.05767 12.10082 4284 ft 247 kts 126°
2026-05-06 14:24 42.04875 12.11995 4237 ft 236 kts 126°
2026-05-06 14:25 42.04004 12.13856 4048 ft 232 kts 126°
2026-05-06 14:25 42.03163 12.15654 3995 ft 222 kts 126°
2026-05-06 14:25 42.02354 12.17381 4002 ft 220 kts 127°
2026-05-06 14:25 42.01440 12.19008 3977 ft 216 kts 148°
2026-05-06 14:26 42.00079 12.19750 4017 ft 213 kts 167°
2026-05-06 14:26 41.98630 12.20313 4006 ft 217 kts 166°
2026-05-06 14:26 41.97172 12.20902 3999 ft 218 kts 165°
2026-05-06 14:26 41.95745 12.21484 3990 ft 216 kts 165°
2026-05-06 14:27 41.94308 12.22080 3983 ft 214 kts 165°
2026-05-06 14:27 41.92891 12.22672 3982 ft 212 kts 165°
2026-05-06 14:27 41.91490 12.23258 3982 ft 209 kts 166°
2026-05-06 14:27 41.90108 12.23837 3990 ft 208 kts 166°
2026-05-06 14:28 41.88810 12.24406 1508 ft 142 kts 161°
2026-05-06 14:28 41.87973 12.24857 89 ft 1 kts